Preview of NWS' New Version of Forecast
This preview is not operational and should not be used for support decisions.

Regional Weather Roundup (RWR)

Issued by National Weather Service (NWS)

                            
000
ASUS44 KMEG 231400
RWRTN 
TENNESSEE HOURLY STATE WEATHER ROUNDUP
NATIONAL WEATHER SERVICE MEMPHIS TN
800 AM CST SAT FEB 23 2019

TNZ002-004-019-021-049-052-054-088>092-231500-
WEST TENNESSEE
  
CITY           SKY/WX    TMP DP  RH WIND       PRES   REMARKS
MEMPHIS INTL   LGT RAIN  60  60 100 SE5       29.90F                  
NWS MEMPHIS      N/A     58 N/A N/A MISG        N/A                   
JACKSON        RAIN      58  57  97 SE7       29.95S                  
DYERSBURG      CLOUDY    57  57 100 SE8       29.94S                  
$$

TNZ008-025-027-028-033-062-065-066-231500-
NORTH MIDDLE TENNESSEE
  
CITY           SKY/WX    TMP DP  RH WIND       PRES   REMARKS
NASHVILLE      RAIN      56  53  90 S10       30.01R FOG              
CLARKSVILLE    RAIN      54  52  93 CALM      30.00R FOG              
SMYRNA         LGT RAIN  55  54  96 S6        30.03R FOG              
CROSSVILLE     HVY RAIN  51  49  92 SE7       30.11S FOG              
$$

TNZ061-075-076-078-094-096-097-231500-
SOUTH MIDDLE TENNESSEE
  
CITY           SKY/WX    TMP DP  RH WIND       PRES   REMARKS
$$

TNZ017-018-042-046-047-231500-
NORTHEAST TENNESSEE
  
CITY           SKY/WX    TMP DP  RH WIND       PRES   REMARKS
TRI CITIES     RAIN      48  48 100 NE5       30.20F FOG              
$$

TNZ012-013-036-069-073-074-231500-
CENTRAL EAST TENNESSEE
  
CITY           SKY/WX    TMP DP  RH WIND       PRES   REMARKS
KNOXVILLE      RAIN      50  49  96 NE6       30.13S FOG              
OAK RIDGE      HVY RAIN  50  50 100 E5        30.16  FOG              
$$

TNZ083-085-099-231500-
SOUTHEAST TENNESSEE
  
CITY           SKY/WX    TMP DP  RH WIND       PRES   REMARKS
CHATTANOOGA    RAIN      51  51 100 E6        30.14F FOG              
$$

SKY/WX REPORTED AS FAIR MEANS FEW OR NO CLOUDS BELOW
12 THOUSAND FEET.